Wind_Speed
11 12 12 12 12 13 13 13 14 14 14 15 15 15 15 15 14 14 13 13 12 11 11 10 10 9 8 8 7 7 7 7 8 7 7 7 7 7 7 7 7 7 7 7 7 7 6 6 5 5 5 4 4 4 4 4 4 4 4 4 2 4 6 5 7 10 11 13 14 13 12 10 11 10 7 9 9 10 13 13 11 11 11 10 11 11 12 13
12 12 12 12 13 13 13 14 14 15 15 15 15 15 15 15 14 14 14 13 13 12 11 11 10 9 9 8 8 8 7 7 8 7 7 7 7 8 8 8 8 8 8 8 8 7 6 6 5 5 5 4 3 3 3 3 3 4 5 4 4 7 10 10 11 11 11 13 11 10 10 10 11 10 5 6 9 9 12 15 13 11 10 10 11 11 11 12
12 12 12 13 13 14 14 15 15 15 15 15 15 15 15 15 15 14 14 14 13 12 12 11 10 9 9 8 8 7 6 8 8 7 8 8 8 8 8 8 8 8 8 8 8 7 6 6 5 4 4 3 2 3 3 3 3 4 5 3 6 10 11 12 14 12 12 13 9 7 9 10 12 11 8 8 9 10 13 17 15 11 11 12 12 12 12 12
13 13 13 13 14 14 15 15 15 16 15 15 16 16 16 16 16 15 15 14 13 13 12 11 10 10 9 8 8 6 6 8 8 8 9 9 9 9 9 9 8 9 9 9 8 8 7 5 4 3 3 2 1 3 3 3 3 6 6 6 8 9 11 13 12 10 11 12 10 8 8 10 12 11 11 12 10 11 15 17 17 14 13 14 14 13 13 13
14 14 14 14 15 15 15 16 16 16 16 17 17 17 17 17 17 16 16 15 14 13 12 12 11 10 9 9 8 7 6 7 8 8 9 9 9 9 9 9 9 9 9 9 9 8 6 5 3 2 2 1 2 3 3 3 4 6 8 10 9 8 11 11 9 9 10 11 11 11 10 12 12 10 12 14 13 14 15 17 18 17 16 16 15 14 14 14
15 15 16 16 16 16 16 17 17 17 18 18 18 19 19 18 18 17 16 16 15 14 13 12 12 11 10 9 9 8 7 7 8 7 7 8 8 8 9 9 10 9 9 9 9 8 6 5 4 4 3 1 3 6 4 4 5 6 8 11 10 10 12 10 8 10 11 12 12 13 13 13 13 13 15 15 14 14 15 17 19 19 18 17 16 16 16 16
16 16 17 17 18 18 19 19 19 19 20 20 20 20 20 19 18 18 17 16 15 15 14 14 13 12 11 10 10 9 9 10 10 9 9 9 9 9 10 10 10 10 10 10 9 8 7 5 5 5 3 1 5 8 6 6 7 6 9 11 9 10 13 11 10 12 12 12 13 13 13 13 15 16 16 17 15 14 16 17 18 18 18 17 17 17 17 17
16 17 17 18 19 20 21 22 22 22 22 22 22 21 20 20 19 18 18 17 17 16 15 15 14 13 12 12 12 11 11 12 11 11 12 12 12 11 11 12 11 11 10 10 10 9 8 7 7 6 5 5 7 9 7 6 7 8 12 12 8 10 13 12 12 13 13 13 13 14 14 14 17 18 18 19 15 15 17 18 19 19 18 18 18 18 18 18
18 18 18 18 19 20 21 22 24 24 24 23 23 22 21 20 20 19 19 18 18 17 17 17 16 15 14 14 14 13 14 14 11 12 13 13 13 12 12 12 12 12 11 11 10 10 10 9 9 7 8 9 9 10 8 7 9 10 12 12 10 11 13 13 14 14 14 14 15 16 16 17 19 18 20 20 17 17 19 19 20 19 19 19 18 18 18 18
20 20 19 19 19 20 20 21 23 23 24 24 23 23 22 21 21 20 20 20 19 19 19 18 18 17 17 16 16 15 15 15 13 13 13 13 13 13 13 12 12 12 12 12 11 11 11 10 10 9 10 11 10 11 10 9 11 12 12 13 12 13 15 14 15 16 16 16 17 17 17 19 20 19 21 22 20 20 21 20 20 19 19 19 18 18 18 18
23 22 22 21 21 21 21 21 21 22 23 24 24 23 23 22 22 22 21 21 21 20 20 20 20 19 19 19 18 17 16 15 15 15 15 15 14 14 13 13 13 13 13 13 13 12 12 12 11 11 11 11 11 12 12 12 13 13 14 15 14 16 17 17 16 17 18 18 17 17 18 21 23 22 23 22 22 21 20 20 19 19 19 19 19 19 19 19
25 25 24 23 23 22 22 22 22 22 23 24 24 24 23 23 23 23 22 22 22 22 22 21 21 21 21 21 20 18 18 17 17 17 16 16 16 16 15 14 14 14 15 14 14 13 13 13 13 13 12 11 12 12 11 11 12 13 15 16 15 17 19 17 17 17 17 18 18 18 20 23 23 21 20 19 19 19 19 20 19 19 19 20 20 21 21 21
28 27 27 26 25 24 24 23 23 22 23 24 24 25 25 24 24 24 23 23 23 23 23 23 23 23 23 23 21 20 19 18 19 19 18 17 17 17 17 17 16 16 16 16 15 15 14 14 14 15 14 13 14 15 13 12 14 14 16 19 18 18 20 18 18 17 17 18 17 17 20 22 19 16 16 15 16 18 18 19 19 20 20 21 22 22 22 23
32 31 30 29 28 27 26 25 24 24 24 24 25 25 26 25 25 25 25 24 24 24 24 24 24 24 25 25 23 22 21 20 20 19 19 19 18 18 18 18 17 17 18 17 16 16 16 16 16 16 16 15 16 17 17 17 18 17 18 20 19 16 17 16 16 17 17 18 17 16 19 21 19 17 17 17 19 19 19 20 20 21 21 22 23 24 24 24
35 34 33 32 30 29 28 27 27 26 25 25 25 26 27 27 27 26 26 26 26 26 25 25 26 26 27 27 25 23 22 21 21 19 20 21 20 20 19 18 19 18 19 18 18 18 17 17 17 18 18 17 17 18 18 18 18 19 17 16 14 12 13 15 16 16 18 19 18 17 16 16 16 16 16 18 19 20 21 21 21 21 22 23 24 24 25 25
37 36 35 34 32 31 30 29 29 28 27 27 27 27 27 28 28 28 28 28 27 27 27 27 27 27 28 28 26 24 23 22 21 20 21 22 22 21 19 19 20 19 19 20 19 19 19 19 19 19 20 19 19 20 18 17 17 17 17 16 14 12 12 15 16 15 18 19 19 19 17 16 16 17 18 20 22 23 24 24 23 23 24 24 25 26 26 26
39 38 37 35 34 33 32 31 31 30 29 28 28 28 28 29 29 30 30 29 29 29 29 29 28 29 30 28 26 24 22 20 19 19 20 20 21 22 21 21 20 20 21 20 20 21 20 21 21 21 21 21 21 20 16 15 16 13 16 17 14 13 13 15 15 15 17 19 19 21 22 22 22 23 24 25 26 27 27 27 27 27 27 27 27 27 28 28
41 40 38 37 36 34 33 32 32 32 31 30 30 30 30 30 30 31 31 31 31 31 31 31 30 30 31 30 28 25 21 21 22 22 22 22 21 21 21 22 22 21 22 22 22 22 22 23 23 22 23 24 23 20 18 18 15 11 14 15 12 11 11 12 15 16 17 19 20 21 25 26 25 26 28 27 28 28 28 30 30 29 29 29 29 29 29 30
42 41 40 39 38 36 35 34 33 33 32 32 32 32 31 31 31 32 32 32 33 32 31 32 32 32 32 30 27 24 22 22 23 22 22 22 22 22 21 22 22 22 23 24 24 23 23 25 26 25 25 25 24 23 22 21 17 14 16 18 17 14 12 11 14 17 18 20 24 25 28 29 27 28 29 29 29 29 30 31 32 30 30 30 31 31 30 30
43 41 40 40 39 38 36 35 35 35 34 34 34 33 32 32 32 32 33 34 35 32 31 33 33 33 34 33 30 27 26 26 25 23 21 20 20 21 22 22 22 22 24 24 24 25 25 27 29 27 24 23 23 23 23 21 16 17 19 21 22 22 22 20 18 21 22 23 27 28 30 31 30 29 30 32 31 32 33 34 34 31 30 30 31 31 30 28
43 42 41 41 40 39 38 37 37 36 35 35 35 35 34 34 33 33 34 34 34 33 34 35 36 36 37 36 34 31 29 30 29 27 24 23 22 21 22 23 24 24 24 23 25 27 27 30 32 26 23 23 21 18 19 19 16 18 22 23 23 24 26 24 21 23 25 26 29 30 31 33 33 29 29 33 35 34 35 35 35 34 33 31 30 30 29 26
42 42 41 41 41 40 39 39 38 38 37 37 37 36 35 34 33 34 34 34 35 35 35 36 37 40 40 39 37 34 33 33 32 30 28 27 25 23 23 22 23 23 22 24 27 28 30 33 31 24 22 22 20 19 19 20 18 18 22 23 24 25 24 22 20 22 24 26 28 28 30 34 34 31 31 35 38 37 36 37 37 36 34 31 29 28 27 25
43 42 40 41 40 39 39 39 39 40 39 39 38 36 35 34 34 34 34 36 37 37 37 38 39 40 40 41 39 36 36 35 34 32 30 29 27 25 26 25 23 22 22 25 27 28 30 30 26 22 21 22 24 25 23 24 24 24 25 24 25 25 22 20 19 21 22 24 25 26 31 38 39 38 37 38 40 39 37 37 36 36 34 31 30 28 25 23
46 44 41 41 39 39 39 39 41 40 39 39 37 35 34 34 34 34 33 35 39 41 40 39 39 41 42 42 39 36 36 35 35 34 32 31 28 27 30 28 26 26 27 28 29 31 34 30 25 24 23 24 24 23 23 25 26 27 27 26 26 25 22 20 18 20 23 26 28 28 31 38 38 32 29 29 30 29 27 27 28 29 31 31 31 29 25 23
49 47 45 41 39 40 39 40 42 40 38 37 35 34 33 33 33 32 31 31 38 43 42 42 43 43 44 44 41 38 37 37 37 37 35 32 29 29 30 29 29 32 30 29 30 34 37 32 28 28 28 29 27 24 24 24 24 24 24 23 23 22 21 20 19 20 24 25 25 19 16 21 22 14 13 16 18 19 20 20 21 22 25 28 29 28 26 23
49 50 49 45 41 39 39 43 41 37 37 36 33 31 31 32 30 29 29 26 36 47 45 43 43 42 44 45 43 38 37 41 41 40 38 33 32 31 31 32 33 33 30 28 28 32 35 32 30 28 28 30 30 28 27 26 25 24 23 22 20 19 19 20 22 22 21 19 17 12 9 17 25 21 19 22 23 24 26 25 23 22 23 24 25 26 25 23
47 48 50 50 47 43 41 42 38 36 38 34 31 30 30 30 27 27 24 15 28 45 46 44 43 41 42 41 39 35 36 43 41 39 40 36 35 34 33 36 35 34 32 27 26 31 32 31 30 29 29 31 33 31 29 28 27 26 26 24 21 21 21 21 22 22 22 22 22 21 18 22 34 37 31 30 29 28 31 30 26 25 24 22 22 24 23 21
49 47 47 48 50 49 46 42 38 37 36 32 30 28 29 28 24 24 15 4 17 29 29 35 41 41 41 38 34 33 37 42 36 35 37 33 34 37 37 38 37 36 35 30 32 34 32 29 29 28 28 29 32 30 28 27 27 28 27 24 23 22 23 23 22 21 21 23 22 21 18 15 27 34 26 24 28 29 28 26 23 23 22 21 20 20 21 20
53 49 47 45 45 48 50 50 47 41 35 32 29 27 28 24 23 20 8 6 22 26 22 26 30 34 36 34 33 34 38 40 37 36 34 30 33 36 38 38 37 36 34 34 37 36 31 31 30 27 27 28 29 27 27 26 26 27 26 24 23 22 23 22 22 21 18 17 19 19 16 13 21 31 22 19 26 26 23 19 18 19 19 19 18 18 19 19
55 52 49 46 45 45 48 53 55 48 39 33 29 28 27 23 24 18 7 14 26 23 23 24 25 28 29 29 31 33 35 37 39 37 34 33 34 34 36 36 36 35 34 33 36 36 35 34 32 30 29 30 29 27 26 26 26 27 25 23 21 20 22 21 20 18 11 14 23 23 22 18 13 17 14 17 23 22 20 18 17 18 19 19 19 18 19 20
57 57 53 50 49 46 46 48 51 49 42 36 32 29 27 25 25 16 10 28 32 25 25 22 24 30 28 29 30 29 31 33 35 35 35 36 35 35 36 35 36 34 34 36 36 36 39 38 36 35 34 32 30 28 27 27 27 26 24 22 17 12 12 12 12 10 6 10 17 17 21 24 18 11 6 9 16 18 20 18 15 17 18 19 20 20 21 21
53 58 59 57 53 49 49 48 46 43 38 37 33 30 30 26 23 22 27 33 25 24 29 24 25 30 26 26 27 26 28 30 31 33 34 36 37 39 39 38 38 31 29 37 39 37 40 42 40 37 37 36 33 31 29 30 29 27 25 21 12 3 3 5 4 5 9 13 12 8 14 22 28 30 22 17 19 21 23 18 13 15 17 20 22 22 23 23
44 48 55 60 60 56 53 48 45 41 37 36 32 33 34 22 21 37 46 36 17 11 18 18 22 25 23 25 27 26 28 28 29 30 33 36 37 39 40 40 40 34 28 29 32 33 32 34 38 39 39 39 39 38 35 33 32 31 29 24 16 7 1 3 5 4 9 15 16 13 14 16 22 28 28 25 23 23 26 23 16 15 16 19 22 23 24 23
42 44 48 53 56 59 58 52 47 45 40 37 35 37 36 25 32 50 54 51 37 18 15 12 12 19 23 27 28 28 28 28 30 30 32 36 37 40 41 40 40 40 34 24 21 24 20 19 27 31 29 29 32 35 36 36 32 30 30 27 25 18 7 4 4 3 3 5 10 14 12 9 12 14 16 16 13 13 19 21 20 19 19 19 20 21 21 21
40 42 44 45 47 52 58 59 55 49 41 39 40 43 41 37 49 59 60 62 52 36 29 17 11 18 25 28 29 29 29 30 31 32 34 37 38 39 40 40 41 41 38 27 21 23 22 22 26 24 20 19 16 18 25 32 30 27 25 26 29 27 21 14 9 7 6 5 5 13 12 12 12 12 12 10 11 11 14 17 19 21 21 20 21 20 19 19
38 37 39 42 44 45 50 57 60 56 45 41 46 50 52 56 60 58 55 54 49 44 39 26 18 22 26 30 33 30 30 32 31 32 36 38 38 40 40 40 40 40 40 36 28 23 20 22 26 24 23 24 18 15 20 25 24 20 22 29 32 29 28 23 15 12 11 8 8 14 17 19 18 19 20 19 19 19 17 18 18 18 20 20 20 20 20 20
40 37 37 39 42 42 44 50 57 57 49 46 52 54 59 66 64 52 43 40 42 45 42 34 30 29 28 30 33 32 31 32 32 33 35 35 37 41 43 41 40 39 40 39 34 28 20 17 20 20 21 23 22 20 20 25 26 21 22 27 28 25 27 22 9 6 6 6 8 15 20 22 19 19 22 23 23 22 21 21 20 20 21 21 21 21 21 21
42 42 42 42 42 43 44 46 51 52 48 50 57 56 59 65 63 55 44 35 36 42 44 42 38 34 32 31 32 34 34 33 34 35 33 33 35 38 40 41 42 40 39 37 34 30 26 19 18 21 21 19 19 19 21 27 30 28 25 25 23 18 19 21 12 4 5 5 6 10 17 22 26 26 25 25 22 21 21 22 22 22 21 20 21 22 22 22
44 46 48 46 44 43 44 46 49 49 50 55 59 58 61 64 61 57 49 39 35 39 44 46 42 36 36 36 34 35 37 38 39 37 34 34 35 37 37 36 37 37 37 38 36 33 31 23 18 21 23 21 22 25 27 29 31 32 30 26 25 20 15 21 22 12 5 4 5 6 8 15 24 27 25 23 19 16 17 20 21 20 18 18 20 22 23 23
43 47 49 46 44 44 44 47 50 52 56 60 60 58 60 61 59 56 53 46 40 40 42 44 42 39 39 38 36 36 37 40 43 42 39 38 37 38 37 34 32 29 28 33 35 33 34 29 21 19 20 22 27 31 33 33 33 36 36 31 30 27 19 17 23 23 14 5 3 4 6 10 13 13 13 11 8 9 12 15 16 15 15 17 19 21 23 22
38 45 49 45 44 44 43 49 55 58 60 60 60 59 58 57 55 55 56 51 45 42 42 40 39 41 41 39 36 38 37 37 42 44 43 44 42 39 37 35 32 28 25 28 33 33 34 34 29 24 24 28 33 34 32 33 34 36 38 37 37 36 29 14 13 23 27 17 9 5 7 11 11 8 8 8 7 8 9 11 12 12 13 15 19 21 22 23
36 42 45 44 45 44 45 55 61 59 61 63 62 62 61 57 53 51 53 54 50 47 43 40 39 39 40 39 38 38 36 34 39 44 45 46 46 42 40 36 31 30 29 28 30 31 32 33 31 30 34 35 34 34 32 31 35 35 36 39 37 37 37 26 12 15 24 28 23 12 9 17 18 11 8 8 9 10 11 13 12 12 13 15 18 21 22 24
37 39 40 42 44 43 46 59 62 57 61 63 63 62 61 59 56 51 49 51 54 53 47 44 43 40 39 39 36 36 36 33 35 41 44 45 46 45 42 37 31 30 31 30 30 30 30 32 31 29 31 30 29 31 32 31 32 35 38 38 37 38 40 38 29 18 15 24 25 11 8 19 21 16 15 15 13 13 15 16 15 15 16 16 19 23 24 25
39 37 36 38 42 44 46 56 58 56 59 61 62 63 61 60 59 56 52 52 54 56 52 48 45 42 39 38 35 34 34 34 34 38 42 43 44 44 41 39 36 35 35 35 34 31 30 33 31 20 14 16 17 18 23 29 31 35 39 38 39 41 38 38 38 27 21 28 26 13 12 22 20 16 18 20 18 18 19 18 17 16 17 17 19 23 26 27
42 41 36 30 35 45 46 47 50 54 58 60 60 62 64 62 60 59 56 53 52 52 52 52 50 47 43 39 37 37 35 35 35 35 37 40 42 43 41 40 40 41 40 39 37 36 36 39 36 25 14 13 13 12 20 31 35 37 40 40 41 42 40 39 37 30 27 29 26 25 28 29 25 19 16 17 18 19 20 17 16 17 17 19 21 23 26 27
45 46 42 33 33 42 46 44 45 49 54 56 56 58 62 63 62 61 56 52 51 52 53 54 51 49 46 43 43 44 43 41 37 33 34 36 38 41 42 42 43 43 42 41 40 40 40 40 42 41 37 35 33 28 26 28 32 37 41 43 45 43 43 41 34 34 36 26 27 41 42 33 31 24 19 20 19 18 19 17 18 18 18 22 25 24 24 25
48 48 50 44 36 40 46 46 47 49 52 53 55 57 61 62 60 56 52 51 53 52 52 52 50 47 48 49 50 51 52 49 45 42 41 40 40 40 39 40 41 42 42 42 42 43 41 39 42 46 48 48 47 42 34 27 27 31 33 38 43 43 44 45 41 45 43 27 30 47 42 38 43 36 29 28 22 18 18 18 19 19 19 23 26 25 23 25
49 51 52 50 42 38 42 47 48 48 48 52 57 58 57 59 58 53 52 56 55 52 50 50 52 53 53 52 50 50 50 47 47 50 49 45 43 41 39 39 40 41 42 43 46 48 46 46 46 43 44 49 47 45 44 37 30 28 27 29 33 37 43 48 50 53 46 36 42 47 37 41 47 40 38 38 29 25 24 21 22 20 21 26 28 26 24 25
47 49 50 50 47 43 40 44 48 47 43 46 55 58 55 57 60 60 58 54 49 51 53 53 56 59 57 53 49 48 48 46 47 52 52 49 47 46 44 44 44 45 45 45 49 47 44 46 47 42 43 49 47 45 48 45 39 36 33 32 33 35 40 44 46 50 49 49 56 48 35 39 39 29 31 32 29 29 26 23 23 22 24 30 30 27 26 25
48 48 48 47 48 46 42 42 47 49 44 41 48 56 57 56 59 61 60 55 49 51 55 58 60 59 57 55 52 51 53 52 52 53 52 51 52 53 52 51 50 49 46 47 49 45 41 42 44 42 41 47 49 47 46 47 47 45 43 43 44 39 38 41 43 45 49 54 57 51 46 50 45 33 30 30 28 29 27 24 25 25 28 30 28 27 26 25
48 50 51 49 48 49 46 42 43 47 44 38 41 50 53 55 58 56 54 55 56 53 53 56 59 57 56 55 55 56 58 57 56 55 52 52 53 53 52 52 52 51 50 49 48 48 45 42 41 37 34 44 51 43 41 46 46 45 50 55 53 43 38 43 46 45 47 50 52 52 55 58 54 46 44 39 32 27 25 26 27 29 30 28 26 27 26 25
47 49 53 53 51 50 48 44 42 44 44 39 38 44 47 50 54 51 45 47 53 55 54 55 54 50 51 53 55 57 57 55 55 56 54 53 54 53 51 50 51 51 51 50 49 50 49 46 45 37 30 39 45 36 37 39 28 31 53 62 57 50 45 45 47 47 47 47 48 51 55 55 52 51 49 44 37 30 28 30 32 34 34 31 30 30 28 28
Wind_Direction
200 199 199 197 195 195 194 193 192 190 189 188 188 188 188 189 191 193 196 200 204 210 214 216 218 219 221 226 232 239 246 252 254 257 260 261 264 266 265 266 267 267 269 272 273 273 273 271 272 274 270 269 270 264 260 248 217 203 173 164 235 230 213 206 215 231 229 236 244 248 253 250 256 254 229 243 253 256 269 273 271 270 274 279 280 279 277 278
199 201 200 199 198 198 197 196 195 193 191 190 191 192 194 197 199 203 206 211 215 218 218 218 221 226 232 236 240 244 251 258 259 265 268 267 269 270 270 268 269 271 272 274 276 274 273 274 275 277 272 267 274 267 253 235 203 196 171 173 251 224 209 213 223 233 229 237 247 242 241 235 252 264 237 243 265 272 277 279 275 277 289 292 288 285 280 279
201 202 203 203 202 201 201 199 198 196 196 197 198 200 203 206 209 213 217 219 220 220 219 222 229 237 241 242 246 249 256 264 266 268 268 268 271 271 271 272 271 271 273 274 273 273 275 279 280 278 276 261 261 270 242 208 190 179 165 194 255 238 235 241 243 244 234 243 253 239 239 239 249 262 263 264 273 282 283 283 285 293 303 299 293 291 286 283
206 205 205 206 206 205 204 203 202 202 203 205 207 209 212 215 219 222 222 221 220 221 224 229 236 240 245 247 251 254 261 271 269 264 265 266 269 272 272 273 271 269 272 271 267 271 274 274 273 268 270 262 257 265 234 211 193 175 186 216 232 242 249 246 246 248 241 251 259 255 249 248 256 260 263 267 266 266 271 279 290 299 302 297 293 291 288 286
214 212 210 211 211 211 211 210 209 209 211 213 215 218 221 224 226 225 223 222 223 226 230 234 238 241 246 250 255 256 259 271 267 260 264 267 267 270 271 270 269 269 268 265 265 266 264 255 249 237 224 253 305 266 230 218 214 202 218 227 227 247 253 247 250 250 250 258 263 265 258 255 265 264 259 261 260 264 270 278 288 294 296 294 292 289 287 286
223 221 220 218 217 217 217 217 218 218 219 220 223 226 228 229 227 224 223 225 228 230 233 236 239 243 248 252 254 253 248 251 259 260 263 267 266 265 264 264 264 264 260 259 261 254 247 240 233 227 206 187 271 257 235 227 229 227 238 238 237 251 254 252 259 258 259 264 266 268 266 269 272 264 260 261 262 266 268 273 280 287 290 289 287 286 286 286
227 228 227 227 226 225 225 224 224 225 226 228 230 231 230 228 225 225 227 229 232 234 237 240 243 246 249 254 254 253 251 247 254 262 263 264 266 264 261 262 261 257 254 252 250 243 239 237 236 241 229 204 260 256 245 244 241 236 250 249 240 250 258 258 262 265 267 266 267 268 269 273 272 268 268 267 266 266 266 270 277 280 281 281 282 283 284 285
228 229 230 231 231 232 231 231 231 231 232 233 233 232 229 228 227 228 230 233 235 238 241 243 246 248 249 255 255 255 257 253 254 262 264 266 267 266 263 261 259 254 249 244 240 238 238 236 239 247 246 231 245 256 249 251 253 238 249 260 253 255 263 265 266 268 269 269 269 269 271 274 273 275 275 272 269 266 268 275 279 278 276 275 276 278 281 282
230 230 230 231 233 234 235 234 234 235 235 234 231 230 230 229 230 231 233 235 238 240 243 246 248 250 252 255 256 258 260 257 259 264 265 267 266 266 264 260 256 252 245 239 236 238 239 239 242 247 255 250 248 257 253 249 256 246 250 265 268 266 268 270 271 271 271 272 272 273 275 274 273 275 275 274 272 269 274 279 280 278 274 273 272 274 276 277
233 233 233 233 233 234 235 235 235 234 234 232 230 230 230 231 233 234 235 237 239 242 245 248 250 252 254 255 257 259 260 260 264 267 267 268 267 266 264 260 256 252 245 240 237 240 243 246 249 247 255 262 257 256 256 249 255 261 265 270 272 274 273 271 273 275 276 275 274 275 277 275 273 273 273 275 278 278 279 280 279 277 274 273 274 274 274 275
237 237 236 236 235 235 236 236 235 233 233 232 230 230 231 233 235 236 237 239 240 244 246 249 252 253 255 257 258 259 260 264 269 270 270 270 269 268 266 262 258 254 249 245 242 242 245 248 252 253 254 260 260 256 256 254 257 265 270 272 274 275 273 273 275 277 279 278 277 278 276 273 273 274 275 278 281 280 279 279 277 275 273 273 275 275 276 275
242 241 241 240 239 238 238 237 236 235 234 233 232 232 232 233 235 237 238 240 242 245 247 250 252 254 256 257 258 260 261 264 269 271 271 271 270 270 268 264 260 256 253 248 246 245 247 250 252 255 255 257 262 261 255 256 263 269 273 274 274 276 277 276 276 275 277 278 280 281 276 274 277 279 279 279 277 275 275 276 276 275 274 275 276 276 276 276
246 246 245 244 243 242 241 240 239 238 236 236 235 234 234 234 236 237 238 241 243 246 248 250 253 255 257 259 259 260 263 266 269 270 271 271 270 270 268 266 261 257 255 251 249 248 250 253 253 255 255 254 259 262 264 267 271 275 279 277 277 281 283 282 280 279 278 278 280 278 273 276 281 280 278 275 274 274 275 275 275 275 275 276 277 277 276 276
247 248 248 247 246 245 244 243 241 240 240 239 238 237 236 236 237 238 240 242 243 245 249 251 254 256 258 259 260 260 263 265 267 269 272 272 271 269 267 265 262 257 255 253 250 251 253 254 255 256 253 253 260 265 271 275 276 278 279 280 284 288 287 284 281 282 279 278 281 276 272 278 280 274 274 274 275 276 276 276 275 274 274 274 275 275 275 275
247 248 248 247 247 247 246 245 244 242 242 241 241 240 239 239 239 240 241 242 244 246 248 251 253 256 259 260 260 261 263 265 266 270 271 271 270 268 266 264 261 257 255 254 253 253 255 255 255 257 255 256 263 267 272 277 280 282 280 283 289 287 284 282 279 278 277 278 280 276 274 281 281 276 274 273 275 276 277 277 274 272 272 271 272 272 272 272
249 249 247 247 246 246 247 247 246 244 243 243 243 243 242 241 241 241 242 243 245 246 248 250 252 255 259 260 260 260 262 265 268 268 268 268 267 266 266 263 259 257 255 254 254 254 254 255 256 258 260 261 265 269 274 277 277 278 279 284 288 277 272 276 276 274 275 279 280 275 273 273 273 273 274 275 277 278 278 277 275 273 273 271 270 270 270 271
250 250 249 247 245 245 246 246 247 246 245 244 244 244 244 244 244 243 243 244 246 247 248 250 252 255 257 258 259 261 263 266 268 268 267 267 267 266 263 261 259 257 255 253 253 254 255 256 257 259 261 262 264 269 269 267 267 266 271 281 287 276 263 264 271 274 275 278 280 278 277 275 273 274 275 277 278 278 278 278 276 275 274 272 271 270 271 271
249 250 250 249 247 245 244 245 247 247 246 246 246 246 246 245 246 245 245 245 246 247 248 249 250 253 256 257 260 263 265 266 265 266 266 266 267 267 264 260 258 255 254 254 254 255 256 257 258 258 260 259 260 260 254 259 267 266 268 273 277 274 264 260 266 271 273 274 277 278 279 282 282 282 282 281 280 279 277 276 275 274 274 273 272 271 271 272
247 248 249 249 248 246 245 245 246 247 246 247 247 247 248 248 247 248 247 246 246 246 249 252 251 253 257 259 261 263 264 264 265 265 267 268 266 264 263 260 257 255 254 254 255 255 256 257 256 255 256 258 262 263 264 272 277 270 268 264 260 262 258 258 263 267 270 273 275 276 278 282 282 281 282 281 280 279 277 276 276 275 274 273 272 272 271 272
247 247 248 249 249 248 247 247 247 247 246 247 248 248 249 249 250 251 249 248 248 249 251 254 254 254 257 258 259 261 264 265 266 267 268 268 266 262 259 257 256 254 254 255 257 256 255 256 255 254 256 262 268 274 278 281 272 260 261 259 260 262 261 263 266 268 272 273 275 277 278 280 279 278 280 279 276 275 275 277 279 278 275 273 271 272 272 271
247 247 247 248 248 249 248 248 249 248 247 247 247 248 250 251 253 253 253 252 251 250 249 252 254 253 254 256 258 259 262 264 265 267 266 265 265 263 258 256 255 253 254 257 258 257 256 257 257 258 262 267 268 270 273 275 264 255 258 260 260 263 267 271 272 271 272 271 273 277 278 278 279 277 277 277 276 276 277 278 279 278 275 274 273 271 270 269
249 247 247 247 248 248 248 249 249 248 248 248 247 249 251 253 254 255 257 256 253 250 248 249 251 252 253 255 256 257 258 261 263 264 265 264 263 261 259 256 255 255 255 253 254 256 258 258 260 262 266 269 262 253 251 256 255 252 257 260 261 264 271 275 273 271 271 272 275 277 276 277 280 279 276 277 278 279 279 277 277 277 276 274 273 270 268 267
251 249 248 247 247 247 248 248 248 248 248 248 249 251 252 254 255 255 257 258 256 252 250 249 250 253 254 254 255 256 258 260 262 262 261 261 260 259 258 254 254 257 254 251 252 256 258 262 266 264 262 262 260 257 252 250 253 254 256 258 261 267 272 272 272 275 275 274 274 278 280 281 281 280 278 277 277 277 277 278 279 278 276 272 268 266 267 267
251 251 250 249 248 247 247 247 247 247 247 249 250 251 252 253 255 255 257 260 259 254 251 250 250 251 252 253 254 255 256 258 260 260 257 257 257 256 256 256 255 255 254 256 258 259 261 264 268 266 263 259 258 260 258 255 256 259 259 258 262 267 269 269 272 279 280 279 280 285 287 285 286 286 282 275 275 277 278 278 278 276 272 267 262 261 262 262
249 250 250 249 249 247 247 247 246 246 248 249 249 250 251 251 252 254 256 261 263 258 253 250 250 250 251 252 252 252 255 256 256 257 256 256 255 253 255 256 253 252 253 256 260 262 263 261 261 261 262 261 260 259 259 259 259 260 262 263 267 270 266 262 261 267 277 283 288 292 290 287 289 293 287 279 279 282 281 277 277 280 278 268 259 254 253 254
245 246 248 249 249 248 247 246 246 248 248 248 248 248 248 248 249 251 253 261 266 260 255 253 251 250 250 250 250 250 254 255 253 254 255 255 254 253 253 253 252 252 252 253 256 260 261 260 258 257 256 258 259 257 257 260 260 260 261 263 268 269 262 257 257 261 271 280 285 280 272 282 283 274 269 276 279 279 278 277 277 281 285 277 260 248 245 246
243 241 242 244 246 248 248 248 248 248 248 248 247 245 245 245 243 245 248 265 269 261 257 253 250 250 250 250 250 246 247 252 252 251 252 252 252 251 250 250 250 250 249 247 246 251 255 257 257 256 254 255 256 256 257 259 259 260 262 263 262 261 259 260 264 266 270 275 275 269 267 278 281 277 274 274 274 274 276 277 276 276 278 276 260 244 240 238
244 241 238 238 240 243 247 250 249 247 248 247 243 241 240 238 235 236 234 244 262 259 256 251 248 249 249 249 249 243 244 251 251 250 252 250 249 248 247 248 249 251 251 244 240 247 254 255 256 257 257 257 257 259 261 259 257 258 262 264 261 258 259 263 267 269 275 279 272 263 257 260 274 278 282 281 274 273 278 280 278 273 269 267 258 243 235 232
243 243 240 237 236 237 241 245 247 246 246 243 239 237 233 229 227 222 205 234 249 252 251 245 242 244 245 245 245 243 244 248 248 250 252 249 247 246 245 246 245 247 250 246 245 248 251 254 257 258 255 256 257 259 259 256 255 256 260 262 260 260 261 262 268 271 275 270 257 250 236 233 272 278 272 270 273 277 284 285 276 267 258 253 248 237 232 232
240 240 239 237 235 234 236 239 243 244 245 242 237 232 226 220 213 197 175 237 242 250 248 240 239 241 242 240 237 238 242 245 248 248 246 244 244 244 244 244 241 239 242 246 248 247 247 250 253 252 252 253 254 255 256 255 254 256 258 258 259 264 264 265 268 268 270 261 254 250 233 224 269 288 265 260 275 283 285 284 276 263 252 244 238 233 234 238
239 239 239 238 236 236 237 237 240 241 243 242 235 226 218 212 204 186 214 238 242 251 242 230 236 239 239 239 237 239 241 243 246 245 242 241 240 240 238 236 234 234 236 239 244 247 248 246 245 247 250 251 253 254 254 254 253 253 251 251 255 264 269 270 261 242 233 262 263 253 235 226 232 251 265 279 283 284 281 284 279 263 251 243 239 238 241 245
242 240 240 240 238 238 237 237 240 240 239 238 232 221 211 201 195 202 226 237 246 253 240 231 235 236 238 241 241 242 240 241 244 243 242 241 240 240 240 237 233 228 230 236 240 246 251 251 250 250 251 252 253 251 249 249 247 246 242 238 232 219 253 246 213 209 226 248 262 238 218 226 235 246 257 263 266 273 278 282 279 262 250 243 244 247 250 252
248 245 242 242 241 239 237 236 239 239 236 232 225 214 205 194 204 217 223 226 229 246 243 240 239 237 237 234 231 232 233 238 241 240 241 240 239 241 241 242 239 233 234 239 239 241 251 258 256 254 254 254 252 247 245 246 243 239 235 225 209 180 190 240 206 228 241 245 251 229 212 229 244 255 264 263 261 268 271 272 268 257 250 246 248 251 253 253
245 247 247 246 244 243 240 237 238 239 232 221 213 205 197 201 224 225 225 226 224 236 257 247 224 221 223 225 228 228 228 233 234 233 236 235 234 237 236 237 238 237 235 237 237 234 239 256 255 254 257 255 254 252 252 251 248 246 244 234 222 209 207 233 206 211 256 257 234 206 201 231 239 250 267 268 263 263 265 262 255 251 250 249 250 251 251 248
241 245 247 247 245 244 242 238 237 239 229 210 203 199 195 208 226 227 229 230 227 234 247 242 211 207 210 215 223 223 222 228 231 227 230 232 233 236 237 235 234 233 229 227 231 231 233 250 256 256 257 255 254 254 247 243 245 249 242 230 226 222 224 240 254 261 286 325 227 197 207 232 235 246 255 259 265 260 261 259 251 250 251 249 251 251 248 244
242 243 243 243 244 245 243 239 236 237 231 208 194 196 204 217 226 227 229 231 226 227 232 230 216 209 205 209 215 216 215 222 227 224 227 232 235 236 236 237 235 232 231 229 226 224 227 244 253 251 252 253 250 247 237 231 236 236 220 219 227 227 227 236 260 273 270 289 254 215 227 241 246 258 254 251 260 258 256 258 251 250 251 249 248 245 242 242
244 243 242 243 243 243 243 241 237 235 230 211 196 202 216 224 227 227 228 229 223 222 223 223 220 214 208 210 215 216 215 219 223 225 227 229 234 237 235 236 237 235 238 236 229 229 231 238 250 249 249 252 249 247 235 221 223 221 215 225 232 228 226 228 250 284 239 257 253 221 232 243 240 252 256 248 249 252 253 254 250 249 251 249 246 240 239 240
244 244 243 240 240 242 242 242 240 233 223 209 202 211 225 228 228 226 226 225 219 220 223 224 226 225 222 224 227 225 221 220 221 222 226 229 234 240 238 237 238 238 240 237 228 231 237 240 250 245 241 247 246 242 227 214 219 226 231 233 224 216 219 214 215 252 214 237 276 234 235 242 238 244 255 253 251 257 258 254 251 252 250 247 242 238 237 237
242 244 244 238 236 240 240 239 238 227 213 204 203 215 228 231 229 224 222 221 220 223 226 227 229 231 232 233 234 232 226 225 226 224 225 231 237 243 242 239 242 242 241 237 232 233 235 239 248 243 239 241 236 230 224 219 218 223 229 228 218 217 217 209 213 225 213 226 271 253 237 247 250 252 258 260 259 257 254 252 253 255 252 246 239 236 239 239
239 243 245 241 238 239 238 237 230 218 210 207 208 219 230 231 229 224 221 221 222 226 230 231 232 233 235 234 233 236 231 228 232 232 230 235 240 244 244 240 240 242 240 238 237 235 233 235 242 242 233 226 227 232 237 239 234 226 224 220 215 215 212 216 225 225 224 240 264 262 256 254 259 257 252 247 232 228 237 241 245 249 247 241 234 234 238 241
236 241 243 243 241 240 239 232 223 215 213 213 215 222 229 230 228 226 223 220 219 225 229 232 231 231 233 234 232 236 235 228 230 234 234 236 239 241 244 243 239 235 229 227 230 230 228 231 236 237 233 231 236 245 249 251 249 242 239 235 228 218 210 214 234 223 222 229 231 237 267 263 256 245 236 220 203 228 235 221 228 243 243 236 230 230 234 237
234 239 242 245 243 243 237 226 220 218 216 216 219 222 225 227 227 227 224 219 216 220 224 226 226 227 231 233 231 233 233 228 228 230 232 237 239 241 245 244 237 233 232 235 239 237 230 230 233 237 244 249 251 250 246 244 244 241 241 240 233 222 214 211 219 218 217 226 234 245 271 265 255 239 227 220 220 235 223 211 231 253 246 233 223 223 229 234
231 233 240 245 244 244 237 222 217 217 218 221 225 225 224 226 227 227 224 220 217 218 221 223 224 225 226 229 230 230 230 230 229 230 234 237 239 241 242 240 234 233 238 242 243 236 224 224 229 235 246 252 253 250 244 241 238 231 232 234 230 227 224 222 225 225 223 228 228 230 261 257 251 241 236 241 243 230 217 225 246 252 243 232 221 219 223 229
236 233 237 243 244 242 232 219 217 218 220 225 227 226 226 227 229 230 228 223 220 218 220 223 224 222 221 221 223 227 228 229 231 233 234 236 236 236 236 236 237 240 243 243 241 235 225 221 219 221 242 251 247 242 234 230 230 230 233 235 234 232 228 226 227 229 245 243 225 210 246 251 251 251 243 245 245 232 230 242 244 234 232 233 228 223 221 224
242 240 236 234 237 241 237 228 226 224 223 224 224 225 226 227 230 233 232 228 225 222 223 226 226 224 223 221 222 225 226 228 233 234 232 232 234 235 234 237 243 246 247 248 249 249 244 234 222 213 216 229 230 228 230 231 230 233 234 234 235 232 224 222 225 224 238 243 226 223 241 248 252 254 239 231 233 236 247 249 232 225 231 233 230 225 223 225
240 244 241 229 220 226 233 237 237 232 228 224 223 225 226 227 232 234 232 229 228 227 228 230 230 230 231 231 230 231 231 232 235 236 234 234 235 236 237 239 243 244 245 248 249 246 242 237 232 229 228 233 241 246 250 246 238 238 240 237 235 233 226 221 220 224 231 235 236 239 241 246 250 249 240 236 235 242 250 239 226 234 241 233 225 223 225 232
237 241 243 238 227 217 218 225 232 236 236 229 224 226 227 227 231 231 228 229 231 231 230 231 232 233 234 235 234 235 236 237 238 239 240 240 239 240 239 239 241 243 245 249 246 239 234 235 238 237 236 241 247 250 253 253 248 247 248 244 239 236 229 220 220 232 232 227 244 248 244 246 249 248 247 248 244 243 244 234 231 242 244 231 221 220 230 238
237 240 242 241 241 231 218 217 221 227 235 233 229 227 226 227 229 228 230 235 235 232 230 230 233 235 236 236 234 234 235 236 238 240 241 240 239 239 239 240 242 244 246 247 243 236 232 237 241 238 240 247 248 247 248 247 250 250 246 245 243 239 233 226 229 237 231 225 245 251 248 252 254 252 251 253 254 255 252 246 243 242 234 224 218 224 238 245
233 240 244 243 244 242 233 226 221 219 224 229 230 229 228 229 231 232 233 234 232 231 230 230 234 235 235 235 234 233 233 233 235 238 240 240 240 242 243 243 244 244 242 241 240 235 230 236 241 240 244 251 249 245 246 244 246 248 246 247 248 244 241 238 242 245 237 236 248 250 248 256 257 253 251 252 254 254 250 245 240 231 224 223 225 238 252 256
230 234 239 241 242 243 241 236 230 226 225 224 227 231 232 233 234 234 232 230 229 231 231 232 236 238 236 236 234 233 236 238 239 240 241 241 243 246 247 247 247 244 239 236 237 237 231 235 243 241 242 250 250 245 244 243 244 247 249 251 250 247 243 240 245 246 238 240 249 248 245 251 251 249 252 252 251 249 245 239 230 223 225 229 235 248 258 261
230 232 235 238 242 244 244 242 238 236 235 228 224 228 231 235 236 235 232 231 233 234 233 237 242 241 238 238 237 238 242 243 243 245 245 245 248 252 252 252 250 245 240 237 237 236 233 234 239 236 236 247 249 245 242 242 244 247 250 251 247 240 236 237 241 242 237 241 247 244 243 248 249 249 252 252 251 247 238 232 226 224 227 233 246 259 262 259
227 231 235 239 242 244 244 244 243 243 243 240 231 225 226 233 237 235 231 232 235 235 235 239 243 240 236 237 239 243 246 245 243 245 246 247 250 253 253 253 252 248 244 241 238 236 235 234 234 230 228 241 247 245 241 241 241 245 249 250 247 240 238 240 241 242 241 242 243 243 248 252 252 250 250 249 247 243 233 227 227 230 234 243 258 266 263 256
Height
3148 3149 3150 3152 3153 3154 3155 3156 3157 3158 3159 3160 3160 3161 3162 3163 3164 3165 3166 3166 3167 3168 3169 3169 3170 3170 3171 3171 3172 3172 3173 3173 3173 3173 3174 3174 3174 3175 3175 3175 3176 3176 3176 3176 3177 3177 3177 3177 3177 3178 3178 3178 3178 3179 3179 3179 3180 3181 3181 3182 3182 3183 3182 3183 3183 3182 3182 3182 3183 3183 3184 3184 3183 3183 3185 3185 3185 3186 3184 3184 3186 3186 3186 3187 3187 3187 3187 3187
3148 3149 3150 3151 3152 3153 3154 3156 3156 3158 3158 3159 3160 3161 3162 3163 3164 3164 3165 3166 3167 3168 3168 3169 3169 3170 3170 3171 3171 3172 3172 3172 3172 3173 3173 3173 3174 3174 3174 3175 3175 3175 3176 3176 3176 3176 3177 3177 3177 3177 3177 3178 3178 3178 3179 3179 3180 3180 3181 3181 3182 3182 3181 3182 3182 3182 3182 3181 3182 3183 3183 3183 3182 3182 3184 3184 3184 3184 3183 3182 3184 3184 3185 3186 3186 3186 3186 3186
3148 3149 3150 3151 3152 3153 3154 3155 3156 3157 3158 3159 3160 3161 3162 3162 3163 3164 3165 3166 3167 3167 3168 3169 3169 3169 3170 3170 3171 3171 3172 3171 3171 3172 3172 3173 3173 3173 3174 3174 3175 3175 3175 3176 3176 3176 3176 3176 3177 3177 3177 3177 3178 3178 3178 3179 3179 3180 3181 3181 3181 3181 3181 3181 3181 3182 3182 3181 3182 3182 3182 3182 3182 3182 3183 3183 3183 3183 3182 3181 3182 3183 3184 3184 3184 3184 3184 3184
3147 3148 3149 3150 3151 3152 3153 3155 3156 3157 3158 3159 3160 3161 3161 3162 3163 3164 3164 3165 3166 3167 3168 3168 3168 3169 3169 3170 3170 3171 3171 3171 3171 3171 3171 3172 3172 3173 3173 3174 3174 3174 3175 3175 3176 3176 3176 3176 3176 3177 3177 3177 3178 3178 3178 3179 3179 3180 3180 3179 3180 3180 3180 3180 3180 3181 3181 3181 3181 3182 3182 3182 3181 3182 3182 3182 3182 3182 3181 3180 3180 3181 3183 3183 3183 3183 3183 3183
3146 3147 3148 3149 3150 3151 3153 3154 3155 3156 3157 3158 3159 3160 3161 3162 3162 3163 3164 3165 3166 3166 3167 3167 3168 3168 3169 3169 3169 3170 3170 3170 3170 3171 3171 3171 3172 3172 3173 3173 3173 3174 3174 3175 3175 3175 3176 3176 3176 3177 3177 3177 3178 3178 3178 3178 3179 3179 3179 3179 3179 3180 3179 3179 3180 3180 3180 3180 3181 3181 3181 3181 3180 3181 3181 3181 3181 3180 3180 3180 3180 3180 3181 3181 3181 3181 3181 3182
3145 3146 3147 3148 3149 3150 3151 3153 3154 3155 3156 3157 3158 3159 3160 3161 3162 3163 3163 3164 3165 3166 3166 3167 3167 3167 3168 3168 3169 3169 3170 3170 3170 3170 3171 3171 3171 3172 3172 3173 3173 3174 3174 3174 3175 3175 3175 3176 3176 3176 3177 3177 3178 3177 3178 3178 3178 3179 3178 3178 3179 3179 3178 3179 3179 3179 3180 3180 3180 3180 3180 3180 3180 3180 3179 3179 3180 3180 3180 3180 3179 3179 3179 3180 3180 3180 3180 3181
3144 3145 3146 3147 3148 3149 3150 3151 3153 3154 3155 3156 3157 3158 3159 3160 3161 3162 3163 3163 3164 3165 3165 3166 3166 3167 3167 3168 3168 3169 3169 3169 3169 3170 3170 3171 3171 3172 3172 3172 3173 3173 3173 3174 3174 3174 3175 3175 3175 3176 3176 3177 3177 3177 3177 3178 3178 3178 3177 3177 3178 3178 3177 3178 3179 3178 3179 3179 3179 3179 3179 3179 3178 3178 3178 3178 3179 3179 3179 3179 3179 3179 3179 3179 3179 3179 3179 3179
3143 3144 3145 3146 3147 3148 3149 3150 3151 3152 3154 3155 3156 3157 3158 3159 3160 3161 3161 3162 3163 3164 3164 3165 3165 3166 3167 3167 3167 3168 3168 3168 3169 3169 3170 3170 3170 3171 3171 3172 3172 3172 3173 3173 3173 3174 3174 3174 3175 3175 3176 3176 3176 3176 3177 3177 3177 3177 3176 3176 3177 3177 3177 3177 3177 3177 3177 3177 3178 3177 3178 3178 3176 3176 3176 3176 3178 3178 3177 3178 3177 3177 3177 3178 3178 3178 3178 3178
3142 3143 3144 3145 3146 3147 3148 3149 3150 3151 3152 3153 3154 3155 3156 3157 3158 3159 3160 3161 3162 3163 3163 3164 3164 3165 3166 3166 3166 3167 3167 3167 3168 3169 3169 3169 3170 3170 3170 3171 3171 3171 3172 3172 3172 3173 3173 3174 3174 3175 3175 3175 3175 3175 3176 3176 3176 3176 3176 3176 3176 3176 3176 3176 3176 3176 3176 3176 3176 3176 3176 3176 3175 3175 3174 3174 3176 3176 3176 3176 3176 3176 3176 3176 3176 3176 3177 3177
3141 3142 3143 3143 3144 3145 3146 3147 3148 3149 3150 3151 3152 3154 3155 3156 3157 3158 3158 3160 3160 3161 3162 3162 3163 3164 3164 3165 3165 3166 3166 3166 3167 3167 3168 3168 3169 3169 3169 3169 3170 3170 3171 3171 3171 3172 3172 3173 3174 3174 3174 3174 3175 3175 3175 3175 3175 3175 3175 3175 3175 3175 3175 3175 3175 3174 3174 3174 3175 3175 3175 3174 3174 3174 3172 3173 3174 3174 3174 3174 3174 3174 3174 3174 3174 3174 3175 3175
3139 3140 3141 3142 3143 3144 3145 3146 3147 3148 3148 3149 3151 3152 3153 3154 3155 3156 3157 3158 3159 3160 3160 3161 3162 3162 3163 3163 3163 3164 3165 3165 3166 3166 3167 3167 3167 3168 3168 3168 3168 3169 3169 3170 3170 3171 3171 3172 3173 3173 3173 3173 3173 3173 3174 3174 3174 3174 3174 3174 3174 3174 3173 3173 3173 3173 3172 3172 3173 3173 3173 3172 3172 3172 3171 3172 3172 3172 3172 3172 3172 3172 3172 3172 3172 3172 3173 3173
3137 3139 3140 3141 3142 3142 3143 3144 3145 3146 3147 3148 3149 3150 3151 3152 3153 3154 3156 3156 3157 3158 3159 3159 3160 3160 3161 3161 3162 3163 3164 3164 3164 3165 3165 3166 3166 3166 3167 3167 3167 3168 3168 3169 3169 3170 3170 3171 3172 3172 3172 3172 3172 3172 3173 3173 3173 3173 3173 3172 3172 3172 3171 3171 3172 3172 3171 3171 3171 3171 3170 3169 3170 3170 3170 3170 3170 3170 3170 3170 3170 3170 3170 3170 3170 3170 3170 3171
3135 3137 3138 3139 3140 3141 3141 3142 3143 3144 3145 3146 3147 3148 3149 3150 3151 3152 3154 3155 3156 3156 3157 3157 3158 3158 3159 3159 3160 3161 3162 3163 3163 3163 3164 3164 3165 3165 3165 3166 3166 3166 3167 3167 3168 3169 3169 3170 3170 3170 3171 3171 3171 3171 3171 3172 3172 3172 3171 3170 3171 3171 3169 3169 3170 3170 3170 3169 3169 3169 3167 3166 3167 3168 3168 3169 3168 3168 3168 3168 3168 3168 3168 3168 3168 3168 3168 3168
3133 3134 3135 3137 3138 3139 3139 3140 3141 3142 3143 3144 3145 3146 3147 3148 3149 3150 3151 3152 3153 3154 3155 3155 3156 3156 3156 3157 3158 3159 3160 3161 3161 3162 3162 3163 3163 3163 3164 3164 3165 3165 3165 3166 3167 3167 3168 3168 3169 3169 3169 3170 3170 3170 3170 3170 3170 3170 3170 3169 3169 3169 3167 3168 3168 3168 3168 3167 3168 3167 3165 3164 3165 3166 3167 3167 3167 3167 3167 3167 3167 3167 3167 3166 3166 3166 3166 3166
3130 3131 3133 3134 3135 3136 3137 3138 3139 3140 3141 3142 3143 3144 3145 3146 3147 3148 3149 3150 3151 3152 3152 3153 3154 3154 3153 3154 3156 3157 3158 3159 3160 3161 3161 3161 3161 3161 3162 3163 3163 3163 3164 3164 3165 3166 3166 3167 3167 3167 3167 3168 3169 3169 3169 3169 3168 3168 3168 3168 3168 3168 3166 3166 3166 3166 3166 3166 3166 3165 3164 3163 3163 3164 3165 3165 3165 3165 3164 3165 3165 3165 3165 3164 3164 3164 3164 3164
3127 3128 3129 3131 3132 3134 3135 3136 3137 3138 3139 3140 3141 3142 3143 3144 3145 3146 3146 3147 3148 3149 3150 3151 3151 3152 3151 3152 3153 3155 3156 3157 3158 3159 3158 3159 3159 3159 3161 3161 3161 3162 3162 3163 3163 3164 3164 3165 3165 3165 3166 3167 3167 3167 3168 3167 3167 3167 3166 3166 3167 3166 3166 3165 3165 3165 3164 3164 3164 3163 3163 3162 3161 3162 3163 3163 3163 3163 3162 3162 3163 3163 3162 3162 3162 3161 3161 3161
3123 3125 3126 3128 3129 3131 3132 3134 3134 3136 3137 3138 3139 3139 3140 3141 3142 3143 3144 3145 3145 3147 3148 3148 3149 3149 3148 3149 3151 3152 3154 3155 3156 3156 3156 3157 3157 3157 3159 3159 3159 3160 3160 3161 3161 3162 3163 3163 3163 3164 3164 3165 3165 3165 3166 3165 3165 3166 3165 3164 3165 3165 3165 3165 3163 3163 3163 3162 3162 3161 3160 3160 3160 3160 3160 3161 3160 3160 3160 3159 3159 3160 3159 3159 3159 3159 3158 3158
3120 3122 3123 3124 3126 3128 3129 3131 3132 3133 3134 3135 3136 3137 3137 3138 3139 3140 3141 3142 3143 3144 3144 3145 3147 3146 3145 3146 3148 3150 3152 3153 3153 3154 3154 3155 3155 3155 3156 3156 3157 3158 3158 3159 3159 3160 3161 3160 3161 3161 3162 3162 3162 3163 3163 3163 3164 3165 3165 3164 3164 3164 3164 3164 3162 3162 3162 3161 3161 3160 3157 3157 3158 3157 3157 3158 3157 3157 3157 3156 3156 3156 3156 3156 3156 3156 3156 3156
3116 3118 3119 3121 3122 3124 3126 3127 3128 3130 3131 3132 3133 3134 3135 3136 3136 3137 3138 3139 3139 3141 3142 3142 3144 3144 3143 3144 3147 3148 3150 3150 3150 3151 3152 3153 3153 3153 3154 3154 3154 3155 3156 3156 3157 3157 3158 3157 3157 3158 3159 3159 3160 3161 3161 3161 3163 3164 3163 3163 3162 3162 3162 3162 3162 3160 3160 3159 3158 3158 3156 3155 3156 3154 3153 3154 3153 3153 3153 3153 3152 3153 3153 3153 3153 3153 3153 3153
3112 3114 3116 3117 3119 3120 3122 3124 3125 3126 3128 3129 3130 3131 3132 3132 3133 3133 3134 3135 3136 3139 3141 3140 3141 3142 3140 3141 3144 3146 3147 3147 3147 3149 3150 3150 3151 3151 3151 3152 3152 3153 3153 3154 3154 3155 3155 3154 3153 3155 3157 3158 3158 3159 3159 3160 3162 3161 3161 3161 3160 3160 3159 3160 3160 3158 3159 3158 3156 3156 3154 3153 3153 3152 3151 3150 3150 3149 3149 3149 3149 3150 3150 3150 3150 3150 3150 3150
3109 3110 3111 3113 3115 3117 3119 3120 3121 3123 3125 3126 3127 3128 3128 3129 3131 3130 3131 3133 3134 3137 3137 3136 3137 3138 3137 3138 3141 3143 3144 3144 3145 3146 3147 3148 3149 3148 3149 3149 3150 3150 3151 3153 3152 3151 3152 3150 3149 3154 3156 3157 3157 3158 3158 3158 3159 3159 3158 3158 3158 3157 3157 3158 3158 3156 3156 3155 3153 3153 3152 3149 3150 3150 3149 3146 3145 3145 3146 3145 3145 3146 3146 3146 3146 3146 3147 3148
3105 3106 3108 3109 3111 3113 3115 3116 3117 3119 3121 3122 3123 3125 3126 3127 3128 3128 3129 3129 3130 3132 3133 3133 3133 3133 3134 3135 3137 3140 3141 3140 3141 3143 3144 3145 3146 3146 3147 3147 3147 3148 3150 3150 3148 3149 3148 3146 3148 3153 3155 3155 3155 3156 3156 3156 3156 3157 3156 3156 3155 3155 3155 3155 3155 3154 3153 3152 3151 3150 3148 3145 3146 3147 3146 3143 3141 3142 3142 3141 3141 3141 3142 3143 3143 3143 3144 3145
3101 3103 3104 3105 3107 3109 3111 3112 3113 3115 3117 3118 3121 3123 3124 3125 3125 3126 3126 3125 3125 3127 3129 3129 3129 3129 3130 3131 3133 3136 3137 3137 3138 3140 3141 3142 3143 3144 3144 3145 3146 3147 3147 3146 3146 3146 3144 3143 3147 3151 3152 3152 3152 3153 3154 3154 3153 3154 3154 3153 3152 3153 3154 3153 3152 3151 3151 3150 3148 3147 3144 3140 3141 3141 3141 3139 3137 3138 3138 3137 3137 3137 3137 3139 3139 3140 3141 3142
3097 3099 3101 3102 3104 3105 3107 3108 3109 3111 3113 3115 3118 3120 3122 3122 3122 3123 3124 3122 3120 3121 3124 3125 3126 3125 3125 3126 3130 3132 3132 3134 3134 3135 3137 3138 3141 3142 3140 3142 3144 3144 3143 3143 3144 3143 3141 3143 3145 3147 3149 3150 3149 3150 3150 3151 3150 3150 3151 3151 3150 3151 3152 3152 3151 3150 3147 3146 3145 3146 3141 3134 3135 3135 3135 3135 3134 3134 3134 3134 3134 3133 3133 3134 3135 3136 3138 3138
3092 3095 3097 3099 3100 3101 3103 3103 3104 3107 3110 3112 3115 3117 3119 3119 3119 3121 3122 3120 3114 3114 3118 3119 3120 3120 3121 3122 3125 3128 3129 3129 3130 3129 3133 3136 3138 3138 3138 3140 3140 3139 3140 3141 3141 3139 3138 3141 3143 3144 3146 3146 3147 3147 3147 3148 3148 3148 3147 3148 3149 3150 3150 3150 3150 3148 3145 3143 3143 3144 3140 3130 3130 3132 3130 3131 3131 3131 3132 3131 3131 3130 3129 3130 3131 3132 3134 3135
3089 3091 3092 3095 3096 3098 3099 3098 3101 3105 3106 3110 3113 3114 3115 3115 3117 3119 3120 3119 3110 3105 3110 3113 3114 3114 3115 3116 3119 3126 3126 3122 3124 3126 3129 3133 3134 3135 3136 3135 3135 3136 3138 3140 3139 3136 3135 3137 3139 3142 3143 3143 3143 3144 3145 3146 3146 3145 3145 3146 3147 3147 3147 3147 3147 3147 3144 3142 3141 3143 3141 3130 3124 3127 3129 3128 3128 3128 3128 3128 3128 3128 3127 3127 3127 3129 3130 3132
3084 3086 3088 3090 3092 3094 3095 3095 3100 3102 3103 3108 3110 3111 3112 3112 3116 3116 3119 3121 3106 3096 3102 3106 3108 3108 3108 3111 3116 3123 3120 3114 3119 3123 3124 3129 3130 3132 3132 3131 3131 3133 3135 3138 3136 3131 3131 3134 3136 3138 3140 3140 3139 3140 3142 3143 3143 3142 3142 3144 3145 3145 3145 3144 3145 3145 3142 3141 3140 3139 3142 3134 3120 3118 3124 3125 3125 3125 3124 3125 3125 3125 3125 3124 3125 3126 3128 3129
3079 3082 3084 3085 3088 3090 3091 3093 3096 3098 3100 3104 3106 3108 3109 3110 3114 3114 3119 3120 3100 3089 3095 3098 3100 3103 3104 3108 3112 3116 3113 3110 3116 3118 3120 3125 3126 3127 3127 3127 3128 3129 3132 3134 3130 3128 3129 3131 3132 3134 3136 3136 3136 3137 3139 3141 3141 3139 3139 3141 3142 3143 3143 3142 3142 3142 3141 3140 3135 3134 3140 3136 3118 3112 3119 3121 3121 3121 3120 3121 3122 3122 3122 3122 3122 3124 3125 3127
3074 3077 3079 3081 3083 3085 3087 3088 3090 3095 3098 3100 3102 3104 3105 3108 3111 3113 3119 3113 3093 3086 3090 3092 3095 3098 3100 3104 3107 3109 3109 3109 3112 3114 3118 3121 3121 3122 3122 3123 3126 3126 3128 3128 3126 3127 3127 3127 3130 3132 3132 3132 3133 3135 3136 3138 3137 3136 3138 3138 3139 3140 3140 3141 3140 3139 3141 3136 3129 3130 3136 3133 3118 3110 3116 3118 3117 3117 3117 3118 3119 3118 3119 3119 3120 3122 3123 3125
3069 3071 3074 3076 3077 3079 3081 3082 3084 3090 3094 3096 3099 3101 3103 3106 3107 3112 3115 3102 3087 3085 3086 3087 3092 3094 3096 3100 3101 3103 3105 3106 3108 3111 3114 3116 3116 3118 3118 3121 3124 3123 3123 3123 3123 3124 3124 3125 3127 3127 3128 3129 3130 3133 3133 3135 3134 3134 3135 3135 3137 3138 3137 3139 3137 3138 3140 3129 3122 3127 3132 3131 3121 3109 3111 3114 3113 3114 3114 3115 3116 3115 3116 3117 3118 3119 3121 3122
3063 3065 3068 3069 3071 3074 3076 3078 3081 3086 3090 3092 3095 3097 3100 3102 3104 3107 3102 3090 3085 3084 3081 3083 3088 3089 3092 3095 3097 3100 3102 3103 3104 3107 3109 3110 3112 3113 3113 3115 3118 3120 3120 3119 3118 3119 3119 3121 3122 3122 3124 3126 3128 3130 3130 3131 3131 3132 3133 3133 3135 3136 3135 3136 3135 3138 3137 3123 3117 3123 3126 3128 3120 3108 3108 3111 3110 3112 3111 3112 3113 3113 3114 3115 3116 3117 3118 3119
3056 3059 3061 3063 3066 3069 3071 3074 3078 3082 3085 3087 3090 3092 3095 3098 3099 3096 3089 3086 3086 3078 3074 3080 3083 3084 3089 3092 3094 3097 3098 3099 3101 3103 3104 3106 3107 3107 3108 3109 3111 3115 3114 3113 3115 3116 3115 3115 3118 3120 3121 3123 3125 3126 3126 3127 3127 3128 3129 3131 3134 3135 3135 3134 3134 3134 3129 3119 3117 3121 3123 3121 3111 3104 3108 3109 3109 3110 3109 3110 3111 3111 3112 3113 3114 3115 3116 3117
3051 3053 3055 3056 3060 3062 3065 3070 3074 3077 3079 3081 3083 3086 3090 3091 3087 3083 3081 3082 3080 3073 3072 3077 3079 3082 3087 3087 3089 3092 3094 3096 3097 3099 3100 3102 3103 3103 3104 3105 3107 3109 3109 3110 3112 3113 3112 3112 3113 3115 3115 3117 3119 3119 3120 3121 3122 3123 3124 3127 3130 3132 3133 3132 3130 3128 3122 3116 3116 3119 3121 3115 3105 3103 3105 3106 3108 3108 3107 3108 3110 3109 3110 3111 3112 3113 3113 3114
3048 3047 3048 3050 3054 3057 3061 3065 3067 3071 3072 3073 3075 3078 3082 3081 3075 3074 3074 3071 3072 3072 3072 3075 3076 3080 3082 3083 3084 3087 3090 3092 3093 3095 3096 3097 3098 3098 3098 3100 3102 3104 3107 3109 3108 3109 3110 3108 3107 3108 3109 3111 3112 3113 3115 3116 3118 3119 3120 3123 3123 3125 3127 3125 3123 3121 3118 3115 3115 3117 3116 3108 3102 3101 3101 3103 3105 3106 3105 3106 3107 3108 3109 3109 3109 3110 3110 3111
3044 3043 3042 3044 3046 3049 3054 3057 3060 3064 3064 3063 3066 3067 3069 3068 3062 3062 3060 3060 3069 3074 3072 3073 3076 3077 3079 3080 3081 3083 3087 3087 3088 3091 3091 3091 3092 3091 3092 3094 3096 3099 3102 3105 3104 3105 3106 3103 3102 3105 3106 3108 3109 3110 3113 3114 3115 3116 3118 3121 3118 3119 3122 3120 3117 3116 3116 3115 3113 3112 3108 3100 3099 3099 3099 3102 3103 3103 3105 3104 3105 3106 3106 3107 3107 3108 3109 3109
3037 3038 3038 3036 3038 3042 3047 3049 3052 3056 3055 3055 3057 3054 3051 3048 3045 3048 3051 3056 3067 3070 3069 3072 3073 3073 3075 3076 3076 3079 3083 3083 3084 3086 3086 3087 3087 3087 3087 3088 3091 3094 3096 3098 3099 3100 3102 3100 3099 3101 3103 3105 3107 3108 3110 3110 3111 3112 3114 3114 3113 3116 3119 3118 3115 3114 3116 3115 3107 3102 3100 3098 3098 3096 3096 3100 3100 3101 3103 3102 3103 3104 3104 3105 3105 3106 3107 3108
3029 3031 3031 3030 3033 3038 3041 3043 3046 3048 3048 3047 3045 3041 3038 3036 3039 3047 3052 3057 3063 3065 3067 3068 3068 3069 3071 3071 3072 3076 3079 3080 3081 3082 3083 3084 3082 3081 3083 3085 3087 3090 3091 3094 3096 3097 3099 3097 3096 3098 3099 3101 3104 3105 3106 3106 3106 3107 3108 3109 3111 3116 3116 3117 3116 3114 3115 3112 3101 3095 3095 3096 3096 3092 3091 3095 3097 3098 3100 3100 3101 3102 3102 3102 3103 3104 3105 3106
3024 3025 3025 3024 3028 3032 3036 3038 3039 3040 3040 3037 3034 3034 3033 3032 3036 3045 3051 3055 3059 3061 3062 3063 3063 3065 3068 3069 3069 3072 3076 3077 3076 3077 3079 3080 3077 3076 3079 3081 3083 3086 3089 3092 3094 3095 3096 3095 3094 3094 3095 3098 3101 3102 3102 3103 3103 3104 3105 3106 3109 3111 3111 3113 3114 3111 3111 3109 3098 3092 3092 3090 3088 3087 3087 3091 3093 3095 3097 3098 3098 3099 3100 3101 3101 3103 3103 3104
3021 3020 3017 3018 3024 3027 3031 3034 3033 3033 3031 3027 3027 3028 3026 3025 3031 3040 3047 3052 3056 3056 3055 3056 3059 3062 3063 3066 3067 3067 3071 3072 3071 3073 3075 3075 3073 3072 3076 3079 3080 3083 3087 3089 3090 3092 3093 3093 3091 3090 3092 3096 3097 3096 3096 3097 3100 3101 3102 3103 3104 3105 3105 3106 3107 3105 3105 3104 3098 3093 3088 3082 3081 3082 3085 3087 3090 3092 3093 3094 3095 3096 3098 3099 3100 3101 3102 3103
3016 3013 3008 3013 3020 3022 3026 3030 3027 3024 3020 3018 3020 3020 3019 3022 3027 3034 3041 3047 3050 3051 3050 3052 3056 3059 3058 3061 3064 3063 3065 3067 3067 3069 3070 3070 3070 3069 3072 3075 3078 3081 3084 3085 3087 3089 3090 3090 3088 3087 3089 3090 3089 3088 3089 3092 3094 3095 3095 3097 3098 3100 3102 3102 3101 3100 3101 3101 3097 3093 3085 3077 3077 3079 3081 3084 3086 3088 3090 3091 3093 3094 3096 3097 3098 3099 3100 3102
3011 3007 3002 3008 3015 3017 3021 3021 3017 3016 3015 3014 3016 3016 3017 3020 3023 3028 3033 3040 3044 3045 3047 3048 3051 3053 3053 3057 3060 3059 3060 3062 3063 3064 3065 3065 3065 3065 3067 3072 3075 3078 3080 3080 3082 3084 3085 3085 3085 3084 3083 3082 3082 3084 3087 3089 3088 3088 3088 3089 3090 3093 3097 3099 3097 3095 3096 3095 3092 3090 3083 3074 3075 3078 3078 3081 3084 3085 3088 3089 3090 3092 3094 3095 3096 3097 3099 3100
3004 3001 2998 3002 3007 3011 3013 3010 3007 3009 3009 3009 3010 3012 3013 3015 3019 3023 3027 3033 3038 3040 3041 3042 3044 3047 3049 3052 3055 3055 3056 3057 3058 3058 3058 3059 3060 3062 3065 3069 3072 3074 3075 3076 3077 3080 3081 3082 3082 3081 3079 3078 3080 3082 3084 3085 3084 3084 3084 3084 3087 3090 3091 3092 3091 3089 3091 3089 3087 3089 3082 3070 3072 3077 3077 3079 3082 3083 3085 3087 3088 3090 3091 3092 3094 3095 3097 3098
2995 2995 2996 2997 3000 3004 3004 3001 3001 3003 3003 3005 3008 3010 3010 3012 3016 3019 3022 3027 3031 3033 3035 3035 3038 3042 3044 3048 3051 3051 3051 3052 3052 3052 3053 3055 3058 3060 3062 3065 3067 3069 3071 3072 3074 3076 3078 3078 3078 3078 3077 3076 3077 3077 3079 3080 3080 3080 3079 3081 3084 3084 3083 3086 3087 3087 3088 3084 3084 3089 3080 3067 3069 3075 3076 3077 3079 3081 3082 3083 3085 3087 3088 3090 3091 3092 3094 3095
2990 2991 2992 2993 2995 2997 2996 2994 2996 2998 2999 3002 3005 3006 3009 3010 3011 3013 3016 3019 3023 3027 3029 3030 3033 3037 3040 3044 3047 3047 3047 3048 3047 3048 3049 3051 3053 3056 3058 3059 3061 3063 3066 3067 3068 3071 3071 3071 3073 3076 3077 3075 3073 3072 3073 3073 3075 3074 3074 3076 3078 3078 3082 3084 3084 3087 3084 3076 3080 3084 3073 3065 3069 3072 3072 3075 3076 3078 3079 3080 3082 3084 3085 3087 3088 3089 3091 3092
2987 2986 2987 2990 2990 2988 2988 2989 2992 2993 2996 2998 2998 3001 3004 3004 3005 3008 3012 3015 3018 3023 3025 3026 3030 3034 3036 3039 3041 3041 3042 3042 3042 3044 3046 3047 3049 3052 3054 3055 3057 3059 3061 3063 3065 3066 3065 3063 3065 3068 3068 3065 3062 3062 3063 3064 3068 3069 3069 3071 3072 3074 3078 3078 3080 3083 3076 3070 3076 3074 3064 3064 3068 3068 3069 3071 3072 3074 3075 3077 3079 3081 3082 3083 3084 3086 3088 3089
2982 2979 2981 2985 2986 2983 2982 2986 2988 2989 2991 2994 2994 2996 2998 2998 3000 3004 3008 3011 3015 3018 3020 3023 3026 3030 3032 3035 3036 3035 3036 3038 3039 3040 3041 3043 3045 3047 3050 3051 3052 3054 3056 3059 3061 3061 3058 3055 3055 3056 3055 3053 3053 3055 3057 3059 3062 3063 3062 3064 3066 3068 3071 3074 3076 3073 3067 3071 3070 3061 3060 3066 3065 3065 3067 3068 3069 3071 3072 3074 3076 3077 3079 3080 3081 3083 3085 3087
2975 2973 2974 2979 2981 2978 2977 2979 2982 2983 2985 2988 2989 2989 2991 2993 2997 3000 3003 3005 3008 3012 3015 3018 3021 3023 3025 3027 3029 3028 3030 3034 3035 3035 3037 3039 3040 3042 3044 3046 3048 3050 3052 3054 3055 3054 3052 3049 3049 3049 3049 3049 3052 3055 3056 3056 3056 3056 3058 3059 3060 3063 3066 3069 3067 3061 3065 3071 3060 3051 3061 3064 3059 3063 3066 3064 3066 3068 3069 3071 3072 3073 3076 3077 3078 3080 3081 3083
2968 2967 2968 2973 2975 2974 2974 2975 2976 2978 2979 2982 2984 2985 2987 2989 2992 2995 2997 2999 3003 3007 3010 3012 3013 3014 3016 3020 3022 3023 3026 3030 3030 3030 3032 3034 3035 3037 3039 3041 3044 3045 3047 3048 3047 3045 3045 3044 3044 3046 3046 3046 3050 3052 3052 3052 3052 3052 3054 3054 3056 3058 3059 3058 3057 3056 3062 3063 3051 3050 3059 3058 3055 3061 3063 3062 3064 3065 3066 3068 3069 3070 3073 3073 3074 3076 3077 3079
2964 2963 2964 2966 2967 2969 2972 2973 2973 2974 2975 2977 2978 2980 2982 2984 2985 2988 2991 2994 2997 3000 3003 3003 3003 3005 3009 3014 3017 3018 3020 3022 3022 3023 3026 3028 3029 3032 3034 3035 3037 3038 3040 3041 3039 3038 3039 3040 3041 3043 3043 3042 3045 3047 3047 3048 3048 3047 3048 3050 3051 3051 3050 3051 3052 3053 3058 3055 3048 3053 3057 3053 3054 3058 3058 3060 3063 3062 3063 3065 3065 3067 3069 3069 3071 3071 3073 3074
2959 2960 2960 2960 2961 2963 2967 2969 2970 2970 2971 2973 2973 2973 2976 2978 2979 2982 2987 2988 2989 2991 2994 2995 2995 2999 3005 3009 3011 3012 3013 3014 3015 3017 3021 3023 3023 3025 3026 3027 3029 3032 3034 3035 3034 3034 3036 3036 3036 3039 3039 3036 3037 3041 3043 3043 3043 3042 3043 3044 3043 3043 3046 3048 3047 3049 3053 3049 3046 3053 3054 3048 3049 3053 3055 3057 3058 3058 3060 3061 3062 3064 3064 3065 3067 3067 3068 3070
2955 2956 2957 2956 2956 2958 2961 2964 2966 2966 2967 2969 2969 2969 2971 2972 2974 2978 2981 2982 2984 2987 2989 2989 2991 2997 3001 3003 3004 3005 3006 3010 3012 3014 3017 3018 3018 3020 3021 3021 3024 3026 3028 3029 3029 3029 3031 3031 3032 3035 3035 3030 3030 3035 3038 3038 3039 3039 3035 3031 3032 3036 3039 3040 3039 3041 3044 3043 3044 3048 3045 3039 3044 3050 3052 3053 3053 3055 3057 3057 3059 3060 3060 3061 3062 3063 3064 3065
2950 2952 2952 2953 2952 2953 2956 2959 2961 2961 2961 2964 2966 2966 2967 2968 2971 2975 2977 2978 2980 2983 2985 2987 2990 2994 2995 2996 2997 2998 3002 3007 3008 3010 3012 3012 3013 3015 3016 3017 3019 3020 3021 3023 3023 3023 3025 3026 3026 3029 3029 3025 3026 3030 3033 3035 3037 3033 3022 3017 3022 3029 3032 3033 3032 3033 3036 3038 3040 3038 3034 3035 3042 3046 3046 3048 3050 3051 3053 3053 3054 3054 3054 3055 3056 3058 3059 3060